This is the latest recevied weather packets stored in our database for station/object K4PAD. If no packets are shown the sender has not sent any weather packets the latest 10 day(s).
| Time | Temp. | Humidity | Pressure | Rain* | Wind** | Luminosity | Snow |
|---|---|---|---|---|---|---|---|
| 1777903067 | 23.33° C | 43% | 1020 hPa | 0 mm | - | 607 W/m² | - |
| 1777902763 | 23.33° C | 47% | 1019.9 hPa | 0 mm | - | 593 W/m² | - |
| 1777902461 | 22.78° C | 46% | 1019.8 hPa | 0 mm | - | 564 W/m² | - |
| 1777902157 | 22.78° C | 47% | 1020 hPa | 0 mm | - | 545 W/m² | - |
| 1777901856 | 22.78° C | 51% | 1019.8 hPa | 0 mm | - | 525 W/m² | - |
| 1777901553 | 22.78° C | 53% | 1019.8 hPa | 0 mm | - | 501 W/m² | - |
| 1777901250 | 22.22° C | 53% | 1019.8 hPa | 0 mm | - | 482 W/m² | - |
| 1777900948 | 22.22° C | 54% | 1020 hPa | 0 mm | - | 461 W/m² | - |
| 1777900645 | 22.22° C | 64% | 1019.8 hPa | 0 mm | - | 439 W/m² | - |
| 1777900342 | 21.67° C | 63% | 1019.8 hPa | 0 mm | - | 379 W/m² | - |
| 1777900039 | 21.11° C | 67% | 1019.9 hPa | 0 mm | - | 313 W/m² | - |
| 1777899735 | 21.11° C | 66% | 1020 hPa | 0 mm | - | 261 W/m² | - |
| 1777899432 | 20° C | 74% | 1019.8 hPa | 0 mm | - | 221 W/m² | - |
| 1777899130 | 18.89° C | 79% | 1019.8 hPa | 0 mm | - | 193 W/m² | - |
| 1777898827 | 17.78° C | 88% | 1019.8 hPa | 0 mm | - | 171 W/m² | - |
| 1777898525 | 16.67° C | 94% | 1019.8 hPa | 0 mm | - | 155 W/m² | - |
| 1777898222 | 16.11° C | 97% | 1019.8 hPa | 0 mm | - | 94 W/m² | - |
| 1777897919 | 15.56° C | 98% | 1019.8 hPa | 0 mm | - | 60 W/m² | - |
| 1777897615 | 15.56° C | 98% | 1019.6 hPa | 0 mm | - | 77 W/m² | - |
| 1777897310 | 15.56° C | 98% | 1019.8 hPa | 0 mm | - | 48 W/m² | - |
| 1777897007 | 15.56° C | 98% | 1019.7 hPa | 0 mm | - | 82 W/m² | - |
| 1777896704 | 15° C | 98% | 1019.5 hPa | 0 mm | - | 94 W/m² | - |
| 1777896401 | 14.44° C | 99% | 1019.5 hPa | 0 mm | - | 77 W/m² | - |
| 1777896099 | 13.89° C | 99% | 1019.6 hPa | 0 mm | - | 50 W/m² | - |
| 1777895797 | 13.33° C | 98% | 1019.4 hPa | 0 mm | - | 69 W/m² | - |
* Rain latest hour (hover to see other rain measurements)
** Current wind speed in m/s (hover to see current wind gust speed)